TimeCST,TemperatureF,Dew PointF,Humidity,Sea Level PressureIn,VisibilityMPH,Wind Direction,Wind SpeedMPH,Gust SpeedMPH,PrecipitationIn,Events,Conditions,WindDirDegrees,DateUTC
12:15 AM,23.0,19.4,86,29.84,10.0,NNE,8.1,-,N/A,,Overcast,20,2013-12-22 06:15:00
12:35 AM,23.0,19.4,86,29.84,10.0,NNE,8.1,-,N/A,,Overcast,20,2013-12-22 06:35:00
12:55 AM,23.0,17.6,80,29.83,10.0,NNE,8.1,-,N/A,,Overcast,20,2013-12-22 06:55:00
1:15 AM,23.0,17.6,80,29.81,10.0,NNE,10.4,-,N/A,,Overcast,30,2013-12-22 07:15:00
1:35 AM,23.0,17.6,80,29.80,10.0,NNE,10.4,-,N/A,,Overcast,30,2013-12-22 07:35:00
1:55 AM,21.2,17.6,86,29.80,10.0,NNE,8.1,-,N/A,,Overcast,20,2013-12-22 07:55:00
2:15 AM,21.2,17.6,86,29.82,10.0,NNE,8.1,-,N/A,,Overcast,30,2013-12-22 08:15:00
2:35 AM,21.2,17.6,86,29.82,10.0,NNE,6.9,-,N/A,,Mostly Cloudy,20,2013-12-22 08:35:00
2:55 AM,21.2,17.6,86,29.82,10.0,North,8.1,-,N/A,,Mostly Cloudy,10,2013-12-22 08:55:00
3:15 AM,21.2,17.6,86,29.82,10.0,North,11.5,-,N/A,,Mostly Cloudy,10,2013-12-22 09:15:00
3:35 AM,21.2,17.6,86,29.80,10.0,North,9.2,-,N/A,,Clear,10,2013-12-22 09:35:00
3:55 AM,21.2,17.6,86,29.80,10.0,North,10.4,-,N/A,,Mostly Cloudy,10,2013-12-22 09:55:00
4:15 AM,21.2,17.6,86,29.81,10.0,North,10.4,-,N/A,,Overcast,360,2013-12-22 10:15:00
4:35 AM,21.2,17.6,86,29.80,10.0,North,10.4,-,N/A,,Overcast,10,2013-12-22 10:35:00
5:50 AM,19.4,17.6,93,29.81,1.0,North,11.5,-,N/A,Snow,Light Snow,10,2013-12-22 11:50:00
6:45 AM,19.4,19.4,100,29.82,1.0,North,10.4,-,N/A,Snow,Light Snow,10,2013-12-22 12:45:00
7:45 AM,19.4,19.4,100,29.84,1.0,NNE,8.1,-,N/A,Snow,Light Snow,20,2013-12-22 13:45:00
8:28 AM,19.4,19.4,100,29.85,0.8,North,6.9,-,N/A,Snow,Light Snow,10,2013-12-22 14:28:00
8:45 AM,19.4,19.4,100,29.85,1.0,North,8.1,-,N/A,Snow,Light Snow,10,2013-12-22 14:45:00
9:45 AM,19.4,17.6,93,29.88,1.0,NNE,8.1,-,N/A,Snow,Light Snow,20,2013-12-22 15:45:00
10:50 AM,19.4,17.6,93,29.89,1.5,NNE,8.1,-,N/A,Snow,Light Snow,30,2013-12-22 16:50:00
11:50 AM,21.2,17.6,86,29.89,5.0,NE,10.4,-,N/A,Snow,Light Snow,40,2013-12-22 17:50:00
12:50 PM,21.2,19.4,93,29.88,7.0,NNE,3.5,-,N/A,Snow,Light Snow,30,2013-12-22 18:50:00
1:45 PM,21.2,19.4,93,29.89,7.0,NNE,5.8,-,N/A,Snow,Light Snow,30,2013-12-22 19:45:00
2:15 PM,23.0,19.4,86,29.90,1.5,North,4.6,-,N/A,Snow,Light Snow,10,2013-12-22 20:15:00
2:45 PM,23.0,19.4,86,29.91,1.2,Calm,Calm,-,N/A,Snow,Light Snow,0,2013-12-22 20:45:00
3:20 PM,23.0,21.2,93,29.93,0.8,Calm,Calm,-,N/A,Snow,Light Snow,0,2013-12-22 21:20:00
3:50 PM,23.0,21.2,93,29.96,1.2,Calm,Calm,-,N/A,Snow,Light Snow,0,2013-12-22 21:50:00
4:15 PM,21.2,21.2,100,29.97,0.5,NW,3.5,-,N/A,Snow,Snow,320,2013-12-22 22:15:00
4:55 PM,21.2,21.2,100,-9999,2.0,NNE,6.9,-,N/A,Snow,Light Snow,20,2013-12-22 22:55:00
5:45 PM,21.2,21.2,100,-9999,3.0,NNE,4.6,-,N/A,Snow,Light Snow,20,2013-12-22 23:45:00
6:50 PM,21.2,21.2,100,30.00,4.0,North,5.8,-,N/A,Snow,Light Snow,360,2013-12-23 00:50:00
7:50 PM,19.4,19.4,100,30.02,5.0,NNE,4.6,-,N/A,Snow,Light Snow,30,2013-12-23 01:50:00
8:45 PM,19.4,19.4,100,30.03,4.0,North,4.6,-,N/A,Snow,Light Snow,360,2013-12-23 02:45:00
9:15 PM,21.2,19.4,93,30.03,7.0,North,5.8,-,N/A,Snow,Light Snow,10,2013-12-23 03:15:00
9:35 PM,21.2,19.4,93,30.04,10.0,NNE,5.8,-,N/A,,Clear,30,2013-12-23 03:35:00
9:45 PM,19.4,17.6,93,30.04,10.0,NNE,4.6,-,N/A,,Mostly Cloudy,30,2013-12-23 03:45:00
9:55 PM,19.4,17.6,93,30.04,10.0,NNE,4.6,-,N/A,,Clear,30,2013-12-23 03:55:00
10:15 PM,19.4,17.6,93,30.04,10.0,NNE,3.5,-,N/A,,Clear,30,2013-12-23 04:15:00
10:35 PM,19.4,17.6,93,30.06,10.0,North,3.5,-,N/A,,Mostly Cloudy,10,2013-12-23 04:35:00
10:55 PM,19.4,19.4,100,30.07,10.0,North,3.5,-,N/A,,Scattered Clouds,10,2013-12-23 04:55:00
11:15 PM,19.4,19.4,100,30.07,10.0,North,4.6,-,N/A,,Clear,10,2013-12-23 05:15:00
11:35 PM,19.4,19.4,100,30.08,10.0,NNE,4.6,-,N/A,,Clear,20,2013-12-23 05:35:00
11:55 PM,19.4,19.4,100,30.08,7.0,NNE,5.8,-,N/A,Snow,Light Snow,20,2013-12-23 05:55:00